When you browse on this site, cookies collect data to enhance your experience and personalize the content and advertising you see.
Visit our Privacy Policy to learn more. By continuing to use the site, you agree to this use of cookies and data.
  • In Austria
  • List of Countries
  • For 7 days
  • Water Temperature
  • Satellite Maps
  • Weather Map
  • News
  • Weather Widgets
  • user-avatar
    Login

    Hourly Weather Ali Bayramli

    Today, 20 March, Wednesday

    Time Temperature Precipitation Wind Pressure Humidity
    00:00 +8°C° 0.5 mm 2 mps 765 mmHg 84%
    01:00 +8°C° 0.7 mm 2 mps 765 mmHg 86%
    02:00 +8°C° 0.7 mm 2 mps 765 mmHg 87%
    03:00 +7°C° 0 mm 2 mps 764 mmHg 90%
    04:00 +7°C° 0.6 mm 2 mps 764 mmHg 90%
    05:00 +8°C° 0.6 mm 1 mps 764 mmHg 90%
    06:00 +8°C° 0.6 mm 1 mps 764 mmHg 90%
    07:00 +8°C° 0.7 mm 1 mps 765 mmHg 88%
    08:00 +8°C° 0.7 mm 1 mps 765 mmHg 87%
    09:00 +8°C° 0 mm 2 mps 765 mmHg 85%
    10:00 +8°C° 0.1 mm 2 mps 765 mmHg 80%
    11:00 +9°C° 0.1 mm 2 mps 764 mmHg 75%
    12:00 +10°C° 0.1 mm 2 mps 764 mmHg 70%
    13:00 +10°C° 0 mm 2 mps 764 mmHg 68%
    14:00 +10°C° 0 mm 3 mps 764 mmHg 67%
    15:00 +11°C° 0 mm 3 mps 764 mmHg 65%
    16:00 +10°C° 0 mm 3 mps 764 mmHg 66%
    17:00 +10°C° 0 mm 4 mps 764 mmHg 67%
    18:00 +8°C° 0 mm 4 mps 764 mmHg 68%
    19:00 +9°C° 0 mm 3 mps 764 mmHg 70%
    20:00 +9°C° 0 mm 3 mps 765 mmHg 72%
    21:00 +8°C° 0 mm 3 mps 765 mmHg 74%
    22:00 +8°C° 0 mm 2 mps 765 mmHg 75%
    23:00 +8°C° 0 mm 2 mps 765 mmHg 75%

    Tomorrow, 21 March, Thursday

    Time Temperature Precipitation Wind Pressure Humidity
    00:00 +8°C° 0 mm 2 mps 765 mmHg 76%
    01:00 +9°C° 0 mm 1 mps 764 mmHg 78%
    02:00 +8°C° 0 mm 1 mps 764 mmHg 80%
    03:00 +8°C° 0 mm 1 mps 764 mmHg 82%
    04:00 +8°C° 0 mm 1 mps 764 mmHg 83%
    05:00 +8°C° 0 mm 1 mps 764 mmHg 83%
    06:00 +8°C° 0 mm 1 mps 764 mmHg 84%
    07:00 +9°C° 0 mm 1 mps 764 mmHg 80%
    08:00 +10°C° 0 mm 1 mps 765 mmHg 77%
    09:00 +9°C° 0 mm 2 mps 765 mmHg 74%
    10:00 +10°C° 0 mm 2 mps 765 mmHg 70%
    11:00 +12°C° 0 mm 1 mps 765 mmHg 66%
    12:00 +13°C° 0 mm 1 mps 764 mmHg 62%
    13:00 +14°C° 0 mm 1 mps 764 mmHg 60%
    14:00 +14°C° 0 mm 1 mps 764 mmHg 58%
    15:00 +15°C° 0 mm 1 mps 763 mmHg 56%
    16:00 +14°C° 0 mm 2 mps 763 mmHg 60%
    17:00 +13°C° 0 mm 3 mps 763 mmHg 63%
    18:00 +12°C° 0 mm 4 mps 763 mmHg 67%
    19:00 +11°C° 0 mm 4 mps 764 mmHg 71%
    20:00 +11°C° 0 mm 4 mps 764 mmHg 75%
    21:00 +10°C° 0 mm 3 mps 764 mmHg 79%
    22:00 +9°C° 0 mm 3 mps 764 mmHg 81%
    23:00 +9°C° 0 mm 2 mps 764 mmHg 84%

    Day after tomorrow, 22 March, Friday

    Time Temperature Precipitation Wind Pressure Humidity
    00:00 +9°C° 0 mm 2 mps 764 mmHg 86%
    01:00 +9°C° 0 mm 1 mps 763 mmHg 88%
    02:00 +9°C° 0 mm 1 mps 763 mmHg 90%
    03:00 +9°C° 0 mm 1 mps 763 mmHg 92%
    04:00 +9°C° 0 mm 1 mps 763 mmHg 93%
    05:00 +8°C° 0 mm 1 mps 763 mmHg 94%
    06:00 +8°C° 0 mm 1 mps 763 mmHg 94%
    07:00 +10°C° 0 mm 1 mps 763 mmHg 86%
    08:00 +11°C° 0 mm 1 mps 764 mmHg 78%
    09:00 +13°C° 0 mm 1 mps 764 mmHg 70%
    10:00 +14°C° 0 mm 1 mps 764 mmHg 65%
    11:00 +15°C° 0 mm 2 mps 763 mmHg 59%
    12:00 +16°C° 0 mm 2 mps 763 mmHg 54%
    13:00 +16°C° 0 mm 2 mps 762 mmHg 52%
    14:00 +17°C° 0 mm 2 mps 762 mmHg 51%
    15:00 +18°C° 0 mm 1 mps 761 mmHg 50%
    16:00 +16°C° 0 mm 2 mps 761 mmHg 54%
    17:00 +14°C° 0 mm 3 mps 761 mmHg 58%
    18:00 +14°C° 0 mm 3 mps 761 mmHg 62%
    19:00 +13°C° 0.1 mm 3 mps 762 mmHg 66%
    20:00 +12°C° 0.1 mm 3 mps 762 mmHg 69%
    21:00 +12°C° 0.1 mm 3 mps 763 mmHg 73%
    22:00 +11°C° 0.4 mm 4 mps 763 mmHg 75%
    23:00 +9°C° 0.4 mm 5 mps 763 mmHg 77%

    23 March, Saturday

    Time Temperature Precipitation Wind Pressure Humidity
    00:00 +9°C° 0.4 mm 6 mps 763 mmHg 79%
    01:00 +8°C° 2.2 mm 6 mps 763 mmHg 79%
    02:00 +8°C° 2.2 mm 5 mps 763 mmHg 79%
    03:00 +7°C° 2.2 mm 4 mps 764 mmHg 79%
    04:00 +7°C° 1.7 mm 4 mps 764 mmHg 81%
    05:00 +8°C° 1.7 mm 3 mps 764 mmHg 82%
    06:00 +8°C° 1.7 mm 2 mps 765 mmHg 84%
    07:00 +8°C° 0.3 mm 2 mps 765 mmHg 82%
    08:00 +8°C° 0.3 mm 2 mps 765 mmHg 80%
    09:00 +9°C° 0.3 mm 2 mps 765 mmHg 79%
    10:00 +10°C° 0 mm 2 mps 765 mmHg 71%
    11:00 +12°C° 0 mm 2 mps 764 mmHg 63%
    12:00 +13°C° 0 mm 2 mps 763 mmHg 56%
    13:00 +13°C° 0 mm 3 mps 762 mmHg 52%
    14:00 +13°C° 0 mm 3 mps 762 mmHg 49%
    15:00 +14°C° 0 mm 3 mps 761 mmHg 45%
    16:00 +13°C° 0 mm 4 mps 760 mmHg 52%
    17:00 +12°C° 0 mm 4 mps 760 mmHg 58%
    18:00 +10°C° 0 mm 5 mps 759 mmHg 65%
    19:00 +10°C° 0 mm 5 mps 759 mmHg 70%
    20:00 +9°C° 0 mm 5 mps 759 mmHg 76%
    21:00 +8°C° 0 mm 4 mps 759 mmHg 81%
    22:00 +8°C° 0 mm 4 mps 759 mmHg 83%
    23:00 +8°C° 0 mm 3 mps 759 mmHg 84%

    24 March, Sunday

    Time Temperature Precipitation Wind Pressure Humidity
    00:00 +8°C° 0 mm 3 mps 759 mmHg 86%
    01:00 +8°C° 0 mm 3 mps 759 mmHg 81%
    02:00 +8°C° 0 mm 3 mps 759 mmHg 76%
    03:00 +8°C° 0 mm 3 mps 759 mmHg 70%
    04:00 +8°C° 0.3 mm 2 mps 760 mmHg 71%
    05:00 +8°C° 0.3 mm 2 mps 761 mmHg 71%
    06:00 +9°C° 0.3 mm 1 mps 761 mmHg 71%
    07:00 +9°C° 0.2 mm 2 mps 762 mmHg 67%
    08:00 +9°C° 0.2 mm 2 mps 762 mmHg 63%
    09:00 +10°C° 0.2 mm 2 mps 763 mmHg 59%
    10:00 +12°C° 0 mm 2 mps 763 mmHg 52%
    11:00 +13°C° 0 mm 2 mps 763 mmHg 45%
    12:00 +14°C° 0 mm 2 mps 763 mmHg 38%
    13:00 +13°C° 0 mm 3 mps 763 mmHg 39%
    14:00 +13°C° 0 mm 3 mps 762 mmHg 40%
    15:00 +13°C° 0 mm 4 mps 762 mmHg 41%
    16:00 +12°C° 0 mm 5 mps 762 mmHg 46%
    17:00 +9°C° 0 mm 5 mps 762 mmHg 51%
    18:00 +8°C° 0 mm 6 mps 762 mmHg 57%
    19:00 +8°C° 0 mm 5 mps 762 mmHg 60%
    20:00 +8°C° 0 mm 5 mps 762 mmHg 63%
    21:00 +7°C° 0 mm 4 mps 763 mmHg 66%
    22:00 +8°C° 0 mm 3 mps 762 mmHg 70%
    23:00 +7°C° 0 mm 2 mps 762 mmHg 75%

    25 March, Monday

    Time Temperature Precipitation Wind Pressure Humidity
    00:00 +7°C° 0 mm 2 mps 762 mmHg 79%
    01:00 +7°C° 0 mm 2 mps 761 mmHg 79%
    02:00 +7°C° 0 mm 2 mps 761 mmHg 79%
    03:00 +6°C° 0 mm 2 mps 761 mmHg 79%
    04:00 +6°C° 0 mm 2 mps 761 mmHg 78%
    05:00 +5°C° 0 mm 3 mps 761 mmHg 78%
    06:00 +5°C° 0 mm 3 mps 761 mmHg 77%
    07:00 +8°C° 0 mm 3 mps 762 mmHg 68%
    08:00 +8°C° 0 mm 4 mps 762 mmHg 59%
    09:00 +11°C° 0 mm 4 mps 762 mmHg 50%
    10:00 +13°C° 0 mm 3 mps 762 mmHg 47%
    11:00 +14°C° 0 mm 3 mps 762 mmHg 44%
    12:00 +16°C° 0 mm 3 mps 762 mmHg 40%
    13:00 +15°C° 0 mm 4 mps 762 mmHg 43%
    14:00 +15°C° 0 mm 5 mps 762 mmHg 46%
    15:00 +16°C° 0 mm 6 mps 762 mmHg 48%
    16:00 +14°C° 0 mm 6 mps 762 mmHg 53%
    17:00 +12°C° 0 mm 7 mps 762 mmHg 58%
    18:00 +11°C° 0 mm 7 mps 763 mmHg 63%
    19:00 +10°C° 0 mm 7 mps 763 mmHg 65%
    20:00 +10°C° 0 mm 6 mps 764 mmHg 66%
    21:00 +9°C° 0 mm 5 mps 765 mmHg 68%
    22:00 +9°C° 0 mm 5 mps 765 mmHg 70%
    23:00 +8°C° 0 mm 4 mps 765 mmHg 72%
    Show more